11-05-2022, 00:00:07,    198,    0.0,   10.1,   0.00,   0.00, 1008.8,   68.8, -999.0
11-05-2022, 00:00:17,    197,    0.0,   10.3,   0.00,   0.00, 1008.8,   68.7, -999.0
11-05-2022, 00:00:28,    197,    0.0,   10.3,   0.00,   0.00, 1008.8,   68.7, -999.0
11-05-2022, 00:00:37,    197,    0.0,   10.3,   0.00,   0.00, 1008.8,   68.8, -999.0
11-05-2022, 00:00:47,    197,    0.0,   10.3,   0.00,   0.00, 1008.8,   68.8, -999.0
11-05-2022, 00:00:57,    198,    0.0,   10.2,   0.00,   0.00, 1008.8,   68.8, -999.0
11-05-2022, 00:01:07,    200,    0.0,   10.3,   0.00,   0.00, 1008.8,   68.9, -999.0
11-05-2022, 00:01:17,    199,    0.0,   10.2,   0.00,   0.00, 1008.8,   68.9, -999.0
11-05-2022, 00:01:27,    199,    0.0,   10.3,   0.00,   0.00, 1008.8,   68.8, -999.0
11-05-2022, 00:01:37,    199,    0.0,   10.3,   0.00,   0.00, 1008.8,   68.9, -999.0
11-05-2022, 00:01:47,    199,    0.0,   10.2,   0.00,   0.00, 1008.8,   68.8, -999.0
11-05-2022, 00:01:57,    199,    0.0,   10.3,   0.00,   0.00, 1008.8,   68.9, -999.0
11-05-2022, 00:02:07,    199,    0.0,   10.4,   0.00,   0.00, 1008.8,   68.8, -999.0
11-05-2022, 00:02:17,    199,    0.0,   10.4,   0.00,   0.00, 1008.8,   68.7, -999.0
11-05-2022, 00:02:27,    199,    0.0,   10.3,   0.00,   0.00, 1008.8,   68.7, -999.0
11-05-2022, 00:02:37,    199,    0.0,   10.2,   0.00,   0.00, 1008.8,   68.8, -999.0
11-05-2022, 00:02:47,    199,    0.0,   10.4,   0.00,   0.00, 1008.8,   68.8, -999.0
11-05-2022, 00:02:57,    199,    0.0,   10.2,   0.00,   0.00, 1008.8,   68.8, -999.0
11-05-2022, 00:03:07,    199,    0.0,   10.3,   0.00,   0.00, 1008.8,   68.9, -999.0
11-05-2022, 00:03:17,    199,    0.0,   10.4,   0.00,   0.00, 1008.8,   68.8, -999.0
11-05-2022, 00:03:26,    199,    0.0,   10.3,   0.00,   0.00, 1008.8,   69.0, -999.0
11-05-2022, 00:03:37,    199,    0.0,   10.2,   0.00,   0.00, 1008.8,   69.0, -999.0
11-05-2022, 00:03:46,    199,    0.0,   10.3,   0.00,   0.00, 1008.7,   68.8, -999.0
11-05-2022, 00:03:56,    199,    0.0,   10.3,   0.00,   0.00, 1008.7,   68.9, -999.0
11-05-2022, 00:04:06,    199,    0.0,   10.4,   0.00,   0.00, 1008.7,   68.9, -999.0
11-05-2022, 00:04:16,    200,    0.0,   10.4,   0.00,   0.00, 1008.7,   69.0, -999.0
11-05-2022, 00:04:26,    197,    0.0,   10.4,   0.00,   0.00, 1008.7,   69.1, -999.0
11-05-2022, 00:04:36,    197,    0.0,   10.4,   0.00,   0.00, 1008.7,   69.0, -999.0
11-05-2022, 00:04:46,    197,    0.0,   10.3,   0.00,   0.00, 1008.7,   68.9, -999.0
11-05-2022, 00:04:56,    197,    0.0,   10.3,   0.00,   0.00, 1008.7,   68.9, -999.0
11-05-2022, 00:05:06,    203,    0.0,   10.3,   0.00,   0.00, 1008.7,   68.8, -999.0
11-05-2022, 00:05:16,    205,    0.0,   10.3,   0.00,   0.00, 1008.7,   68.8, -999.0
11-05-2022, 00:05:26,    228,    0.3,   10.3,   0.00,   0.00, 1008.8,   69.2, -999.0
11-05-2022, 00:05:36,    182,    0.0,   10.3,   0.00,   0.00, 1008.7,   69.2, -999.0
11-05-2022, 00:05:46,    178,    0.0,   10.3,   0.00,   0.00, 1008.7,   68.9, -999.0
11-05-2022, 00:05:56,    181,    0.0,   10.3,   0.00,   0.00, 1008.6,   69.0, -999.0
11-05-2022, 00:06:06,    181,    0.0,   10.3,   0.00,   0.00, 1008.7,   69.0, -999.0
11-05-2022, 00:06:16,    181,    0.0,   10.3,   0.00,   0.00, 1008.7,   69.0, -999.0
11-05-2022, 00:06:26,    182,    0.0,   10.3,   0.00,   0.00, 1008.7,   69.1, -999.0
11-05-2022, 00:06:35,    181,    0.0,   10.2,   0.00,   0.00, 1008.6,   69.1, -999.0
11-05-2022, 00:06:46,    181,    0.0,   10.2,   0.00,   0.00, 1008.6,   69.2, -999.0
11-05-2022, 00:06:55,    182,    0.0,   10.3,   0.00,   0.00, 1008.7,   69.2, -999.0
11-05-2022, 00:07:05,    181,    0.0,   10.2,   0.00,   0.00, 1008.6,   69.2, -999.0
11-05-2022, 00:07:15,    181,    0.0,   10.4,   0.00,   0.00, 1008.6,   69.3, -999.0
11-05-2022, 00:07:25,    182,    0.0,   10.2,   0.00,   0.00, 1008.7,   69.4, -999.0
11-05-2022, 00:07:35,    181,    0.0,   10.2,   0.00,   0.00, 1008.7,   69.5, -999.0
11-05-2022, 00:07:45,    182,    0.0,   10.3,   0.00,   0.00, 1008.7,   69.4, -999.0
11-05-2022, 00:07:55,    181,    0.0,   10.3,   0.00,   0.00, 1008.7,   69.5, -999.0
11-05-2022, 00:08:05,    181,    0.0,   10.3,   0.00,   0.00, 1008.7,   69.4, -999.0
11-05-2022, 00:08:15,    204,    0.0,   10.3,   0.00,   0.00, 1008.7,   69.5, -999.0
11-05-2022, 00:08:25,    217,    0.2,   10.3,   0.00,   0.00, 1008.7,   69.6, -999.0
11-05-2022, 00:08:35,    216,    0.0,   10.2,   0.00,   0.00, 1008.7,   69.4, -999.0
11-05-2022, 00:08:45,    189,    0.1,   10.2,   0.00,   0.00, 1008.7,   69.6, -999.0
11-05-2022, 00:08:55,    199,    0.4,   10.4,   0.00,   0.00, 1008.8,   69.9, -999.0
11-05-2022, 00:09:05,    202,    1.5,   10.3,   0.00,   0.00, 1008.9,   70.1, -999.0
11-05-2022, 00:09:15,    207,    0.6,   10.3,   0.00,   0.00, 1008.8,   69.9, -999.0
11-05-2022, 00:09:25,    205,    0.2,   10.3,   0.00,   0.00, 1008.8,   69.8, -999.0
11-05-2022, 00:09:34,    205,    0.0,   10.2,   0.00,   0.00, 1008.7,   69.6, -999.0
11-05-2022, 00:09:45,    207,    0.0,   10.2,   0.00,   0.00, 1008.7,   69.6, -999.0
11-05-2022, 00:09:55,    204,    0.3,   10.2,   0.00,   0.00, 1008.8,   70.0, -999.0
11-05-2022, 00:10:04,    204,    0.0,   10.2,   0.00,   0.00, 1008.7,   69.7, -999.0
11-05-2022, 00:10:14,    205,    0.0,   10.2,   0.00,   0.00, 1008.7,   69.8, -999.0
11-05-2022, 00:10:25,    205,    0.1,   10.3,   0.00,   0.00, 1008.8,   70.0, -999.0
11-05-2022, 00:10:34,    208,    0.0,   10.3,   0.00,   0.00, 1008.8,   70.0, -999.0
11-05-2022, 00:10:44,    209,    0.0,   10.3,   0.00,   0.00, 1008.7,   69.9, -999.0
11-05-2022, 00:10:54,    209,    0.0,   10.2,   0.00,   0.00, 1008.7,   70.0, -999.0
11-05-2022, 00:11:04,    210,    0.0,   10.2,   0.00,   0.00, 1008.8,   69.9, -999.0
11-05-2022, 00:11:14,    210,    0.0,   10.2,   0.00,   0.00, 1008.8,   69.9, -999.0
11-05-2022, 00:11:24,    210,    0.0,   10.3,   0.00,   0.00, 1008.7,   69.9, -999.0
11-05-2022, 00:11:34,    211,    0.0,   10.3,   0.00,   0.00, 1008.8,   69.9, -999.0
11-05-2022, 00:11:44,    194,    0.3,   10.3,   0.00,   0.00, 1008.9,   70.2, -999.0
11-05-2022, 00:11:54,    196,    0.0,   10.2,   0.00,   0.00, 1008.8,   70.1, -999.0
11-05-2022, 00:12:04,    198,    0.0,   10.3,   0.00,   0.00, 1008.8,   69.8, -999.0
11-05-2022, 00:12:14,    198,    0.0,   10.2,   0.00,   0.00, 1008.8,   69.7, -999.0
11-05-2022, 00:12:24,    198,    0.0,   10.2,   0.00,   0.00, 1008.8,   69.8, -999.0
11-05-2022, 00:12:34,    198,    0.0,   10.2,   0.00,   0.00, 1008.7,   69.8, -999.0
11-05-2022, 00:12:43,    198,    0.0,   10.2,   0.00,   0.00, 1008.8,   69.7, -999.0
11-05-2022, 00:12:54,    199,    0.0,   10.2,   0.00,   0.00, 1008.8,   69.8, -999.0
11-05-2022, 00:13:04,    198,    0.0,   10.2,   0.00,   0.00, 1008.8,   69.8, -999.0
11-05-2022, 00:13:13,    198,    0.0,   10.2,   0.00,   0.00, 1008.8,   69.9, -999.0
11-05-2022, 00:13:23,    198,    0.0,   10.2,   0.00,   0.00, 1008.8,   69.8, -999.0
11-05-2022, 00:13:34,    197,    0.0,   10.2,   0.00,   0.00, 1008.8,   70.0, -999.0
11-05-2022, 00:13:43,    176,    0.5,   10.3,   0.00,   0.00, 1008.8,   70.2, -999.0
11-05-2022, 00:13:53,    176,    0.1,   10.2,   0.00,   0.00, 1008.8,   69.9, -999.0
11-05-2022, 00:14:03,    201,    0.3,   10.2,   0.00,   0.00, 1008.8,   70.1, -999.0
11-05-2022, 00:14:13,    210,    0.3,   10.3,   0.00,   0.00, 1008.8,   70.1, -999.0
11-05-2022, 00:14:23,    212,    1.1,   10.3,   0.00,   0.00, 1008.9,   70.3, -999.0
11-05-2022, 00:14:33,    211,    0.1,   10.2,   0.00,   0.00, 1008.7,   70.1, -999.0
11-05-2022, 00:14:43,    207,    0.4,   10.3,   0.00,   0.00, 1008.8,   70.1, -999.0
11-05-2022, 00:14:53,    184,    0.3,   10.3,   0.00,   0.00, 1008.8,   70.0, -999.0
11-05-2022, 00:15:03,    184,    0.0,   10.2,   0.00,   0.00, 1008.8,   69.9, -999.0
11-05-2022, 00:15:13,    213,    0.0,   10.2,   0.00,   0.00, 1008.7,   70.1, -999.0
11-05-2022, 00:15:23,    213,    0.0,   10.2,   0.00,   0.00, 1008.7,   70.0, -999.0
11-05-2022, 00:15:33,    214,    0.0,   10.2,   0.00,   0.00, 1008.7,   69.9, -999.0
11-05-2022, 00:15:43,    216,    0.0,   10.2,   0.00,   0.00, 1008.7,   69.9, -999.0
11-05-2022, 00:15:52,    205,    0.0,   10.2,   0.00,   0.00, 1008.7,   69.9, -999.0
11-05-2022, 00:16:03,    209,    0.0,   10.2,   0.00,   0.00, 1008.7,   69.9, -999.0
11-05-2022, 00:16:13,    209,    0.0,   10.2,   0.00,   0.00, 1008.7,   70.0, -999.0
11-05-2022, 00:16:22,    209,    0.0,   10.2,   0.00,   0.00, 1008.7,   70.0, -999.0
11-05-2022, 00:16:32,    209,    0.0,   10.2,   0.00,   0.00, 1008.7,   70.1, -999.0
11-05-2022, 00:16:43,    209,    0.2,   10.2,   0.00,   0.00, 1008.8,   70.2, -999.0
11-05-2022, 00:16:52,    209,    0.1,   10.2,   0.00,   0.00, 1008.8,   70.1, -999.0
11-05-2022, 00:17:02,    210,    0.1,   10.3,   0.00,   0.00, 1008.7,   70.3, -999.0
11-05-2022, 00:17:12,    210,    0.4,   10.2,   0.00,   0.00, 1008.8,   70.5, -999.0
11-05-2022, 00:17:22,    209,    0.2,   10.3,   0.00,   0.00, 1008.7,   70.3, -999.0
11-05-2022, 00:17:32,    210,    0.0,   10.2,   0.00,   0.00, 1008.7,   70.0, -999.0
11-05-2022, 00:17:42,    209,    0.0,   10.1,   0.00,   0.00, 1008.7,   70.1, -999.0
11-05-2022, 00:17:52,    210,    0.0,   10.1,   0.00,   0.00, 1008.7,   69.9, -999.0
11-05-2022, 00:18:02,    210,    0.0,   10.2,   0.00,   0.00, 1008.7,   70.1, -999.0
11-05-2022, 00:18:12,    209,    0.0,   10.1,   0.00,   0.00, 1008.7,   70.1, -999.0
11-05-2022, 00:18:22,    211,    0.0,   10.2,   0.00,   0.00, 1008.7,   70.3, -999.0
11-05-2022, 00:18:32,    207,    0.8,   10.2,   0.00,   0.00, 1008.8,   70.4, -999.0
11-05-2022, 00:18:42,    213,    0.4,   10.2,   0.00,   0.00, 1008.8,   70.4, -999.0
11-05-2022, 00:18:52,    213,    0.1,   10.2,   0.00,   0.00, 1008.7,   70.2, -999.0
11-05-2022, 00:19:02,    212,    0.0,   10.2,   0.00,   0.00, 1008.7,   70.2, -999.0
11-05-2022, 00:19:12,    212,    0.0,   10.1,   0.00,   0.00, 1008.7,   70.1, -999.0
11-05-2022, 00:19:22,    212,    0.0,   10.1,   0.00,   0.00, 1008.7,   70.1, -999.0
11-05-2022, 00:19:33,    212,    0.0,   10.1,   0.00,   0.00, 1008.7,   70.1, -999.0
11-05-2022, 00:19:42,    212,    0.0,   10.2,   0.00,   0.00, 1008.7,   70.3, -999.0
11-05-2022, 00:19:52,    212,    0.0,   10.2,   0.00,   0.00, 1008.7,   70.2, -999.0
11-05-2022, 00:20:01,    212,    0.0,   10.1,   0.00,   0.00, 1008.7,   70.2, -999.0
11-05-2022, 00:20:11,    213,    0.0,   10.2,   0.00,   0.00, 1008.7,   70.1, -999.0
11-05-2022, 00:20:21,    213,    0.0,   10.1,   0.00,   0.00, 1008.7,   70.2, -999.0
11-05-2022, 00:20:31,    213,    0.0,   10.2,   0.00,   0.00, 1008.7,   70.2, -999.0
11-05-2022, 00:20:41,    213,    0.0,   10.2,   0.00,   0.00, 1008.7,   70.1, -999.0
11-05-2022, 00:20:51,    213,    0.0,   10.2,   0.00,   0.00, 1008.6,   70.2, -999.0
11-05-2022, 00:21:01,    213,    0.0,   10.2,   0.00,   0.00, 1008.7,   70.4, -999.0
11-05-2022, 00:21:11,    213,    0.0,   10.1,   0.00,   0.00, 1008.7,   70.2, -999.0
11-05-2022, 00:21:21,    213,    0.0,   10.2,   0.00,   0.00, 1008.7,   70.1, -999.0
11-05-2022, 00:21:31,    203,    0.0,   10.2,   0.00,   0.00, 1008.7,   70.1, -999.0
11-05-2022, 00:21:41,    228,    0.0,   10.2,   0.00,   0.00, 1008.7,   70.2, -999.0
11-05-2022, 00:21:51,    224,    0.4,   10.3,   0.00,   0.00, 1008.7,   70.3, -999.0
11-05-2022, 00:22:01,    249,    1.9,   10.3,   0.00,   0.00, 1008.8,   70.4, -999.0
11-05-2022, 00:22:11,    231,    1.0,   10.2,   0.00,   0.00, 1008.8,   70.2, -999.0
11-05-2022, 00:22:21,    231,    0.0,   10.1,   0.00,   0.00, 1008.7,   69.9, -999.0
11-05-2022, 00:22:31,    231,    0.0,   10.1,   0.00,   0.00, 1008.7,   69.8, -999.0
11-05-2022, 00:22:40,    231,    0.0,   10.1,   0.00,   0.00, 1008.7,   69.9, -999.0
11-05-2022, 00:22:51,    231,    0.0,   10.3,   0.00,   0.00, 1008.7,   69.9, -999.0
11-05-2022, 00:23:01,    231,    0.0,   10.2,   0.00,   0.00, 1008.7,   70.0, -999.0
11-05-2022, 00:23:10,    231,    0.0,   10.2,   0.00,   0.00, 1008.7,   70.1, -999.0
11-05-2022, 00:23:20,    222,    0.0,   10.2,   0.00,   0.00, 1008.7,   70.0, -999.0
11-05-2022, 00:23:30,    197,    0.3,   10.2,   0.00,   0.00, 1008.8,   70.4, -999.0
11-05-2022, 00:23:40,    222,    1.7,   10.3,   0.00,   0.00, 1008.8,   70.4, -999.0
11-05-2022, 00:23:50,    222,    0.9,   10.3,   0.00,   0.00, 1008.8,   70.3, -999.0
11-05-2022, 00:24:00,    241,    0.1,   10.1,   0.00,   0.00, 1008.8,   70.2, -999.0
11-05-2022, 00:24:10,    240,    0.0,   10.2,   0.00,   0.00, 1008.7,   70.0, -999.0
11-05-2022, 00:24:20,    242,    0.0,   10.2,   0.00,   0.00, 1008.7,   69.9, -999.0
11-05-2022, 00:24:30,    240,    0.0,   10.2,   0.00,   0.00, 1008.7,   70.2, -999.0
11-05-2022, 00:24:40,    210,    0.1,   10.2,   0.00,   0.00, 1008.7,   70.1, -999.0
11-05-2022, 00:24:50,    209,    0.0,   10.2,   0.00,   0.00, 1008.7,   70.2, -999.0
11-05-2022, 00:25:00,    209,    0.2,   10.2,   0.00,   0.00, 1008.7,   70.2, -999.0
11-05-2022, 00:25:10,    236,    0.7,   10.3,   0.00,   0.00, 1008.8,   70.4, -999.0
11-05-2022, 00:25:20,    268,    0.3,   10.3,   0.00,   0.00, 1008.8,   70.2, -999.0
11-05-2022, 00:25:30,    268,    0.0,   10.2,   0.00,   0.00, 1008.7,   70.0, -999.0
11-05-2022, 00:25:40,    267,    0.0,   10.2,   0.00,   0.00, 1008.7,   69.9, -999.0
11-05-2022, 00:25:50,    268,    0.0,   10.2,   0.00,   0.00, 1008.7,   70.1, -999.0
11-05-2022, 00:26:00,    267,    0.0,   10.2,   0.00,   0.00, 1008.7,   70.0, -999.0
11-05-2022, 00:26:10,    267,    0.0,   10.2,   0.00,   0.00, 1008.7,   70.0, -999.0
11-05-2022, 00:26:19,    212,    0.0,   10.2,   0.00,   0.00, 1008.7,   70.0, -999.0
11-05-2022, 00:26:30,    221,    0.0,   10.2,   0.00,   0.00, 1008.7,   70.1, -999.0
11-05-2022, 00:26:39,    282,    0.8,   10.2,   0.00,   0.00, 1008.7,   70.2, -999.0
11-05-2022, 00:26:49,    282,    0.8,   10.3,   0.00,   0.00, 1008.7,   70.3, -999.0
11-05-2022, 00:26:59,    282,    0.3,   10.2,   0.00,   0.00, 1008.7,   70.2, -999.0
11-05-2022, 00:27:09,    284,    0.0,   10.2,   0.00,   0.00, 1008.7,   69.9, -999.0
11-05-2022, 00:27:19,    282,    0.6,   10.2,   0.00,   0.00, 1008.7,   70.2, -999.0
11-05-2022, 00:27:29,    243,    0.3,   10.3,   0.00,   0.00, 1008.7,   70.1, -999.0
11-05-2022, 00:27:39,    241,    1.4,   10.3,   0.00,   0.00, 1008.8,   70.2, -999.0
11-05-2022, 00:27:49,    240,    0.8,   10.2,   0.00,   0.00, 1008.7,   70.2, -999.0
11-05-2022, 00:27:59,    241,    0.0,   10.2,   0.00,   0.00, 1008.7,   69.9, -999.0
11-05-2022, 00:28:09,    240,    0.0,   10.2,   0.00,   0.00, 1008.7,   69.8, -999.0
11-05-2022, 00:28:19,    228,    0.0,   10.2,   0.00,   0.00, 1008.7,   69.9, -999.0
11-05-2022, 00:28:29,    241,    1.1,   10.3,   0.00,   0.00, 1008.7,   70.2, -999.0
11-05-2022, 00:28:39,    241,    2.2,   10.3,   0.00,   0.00, 1008.8,   70.1, -999.0
11-05-2022, 00:28:49,    233,    0.9,   10.3,   0.00,   0.00, 1008.7,   70.1, -999.0
11-05-2022, 00:28:59,    245,    0.4,   10.3,   0.00,   0.00, 1008.7,   70.1, -999.0
11-05-2022, 00:29:09,    257,    0.4,   10.3,   0.00,   0.00, 1008.7,   70.1, -999.0
11-05-2022, 00:29:18,    167,    0.8,   10.2,   0.00,   0.00, 1008.7,   70.0, -999.0
11-05-2022, 00:29:28,    192,    0.1,   10.3,   0.00,   0.00, 1008.7,   70.2, -999.0
11-05-2022, 00:29:39,    200,    0.6,   10.3,   0.00,   0.00, 1008.7,   70.2, -999.0
11-05-2022, 00:29:48,    200,    0.0,   10.2,   0.00,   0.00, 1008.6,   69.7, -999.0
11-05-2022, 00:29:58,    199,    0.0,   10.2,   0.00,   0.00, 1008.6,   69.6, -999.0
11-05-2022, 00:30:09,    199,    0.0,   10.2,   0.00,   0.00, 1008.6,   69.7, -999.0
11-05-2022, 00:30:18,    240,    0.1,   10.2,   0.00,   0.00, 1008.6,   69.8, -999.0
11-05-2022, 00:30:28,    244,    0.4,   10.2,   0.00,   0.00, 1008.7,   69.9, -999.0
11-05-2022, 00:30:38,    223,    0.0,   10.2,   0.00,   0.00, 1008.6,   69.7, -999.0
11-05-2022, 00:30:48,    223,    0.0,   10.2,   0.00,   0.00, 1008.7,   69.9, -999.0
11-05-2022, 00:30:58,    223,    0.0,   10.3,   0.00,   0.00, 1008.6,   69.7, -999.0
11-05-2022, 00:31:08,    223,    0.0,   10.3,   0.00,   0.00, 1008.6,   69.8, -999.0
11-05-2022, 00:31:18,    225,    0.0,   10.3,   0.00,   0.00, 1008.6,   69.7, -999.0
11-05-2022, 00:31:28,    225,    0.0,   10.3,   0.00,   0.00, 1008.6,   69.7, -999.0
11-05-2022, 00:31:38,    225,    0.0,   10.3,   0.00,   0.00, 1008.6,   69.8, -999.0
11-05-2022, 00:31:48,    225,    0.0,   10.3,   0.00,   0.00, 1008.6,   69.8, -999.0
11-05-2022, 00:31:58,    219,    0.3,   10.3,   0.00,   0.00, 1008.7,   70.0, -999.0
11-05-2022, 00:32:08,    205,    0.0,   10.3,   0.00,   0.00, 1008.6,   69.8, -999.0
11-05-2022, 00:32:18,    175,    0.5,   10.3,   0.00,   0.00, 1008.7,   70.0, -999.0
11-05-2022, 00:32:27,    206,    0.2,   10.3,   0.00,   0.00, 1008.7,   69.8, -999.0
11-05-2022, 00:32:38,    206,    0.0,   10.2,   0.00,   0.00, 1008.6,   69.6, -999.0
11-05-2022, 00:32:48,    207,    0.2,   10.2,   0.00,   0.00, 1008.6,   69.8, -999.0
11-05-2022, 00:32:57,    211,    0.0,   10.2,   0.00,   0.00, 1008.6,   69.7, -999.0
11-05-2022, 00:33:07,    217,    0.4,   10.3,   0.00,   0.00, 1008.6,   70.0, -999.0
11-05-2022, 00:33:18,    202,    0.2,   10.2,   0.00,   0.00, 1008.6,   70.0, -999.0
11-05-2022, 00:33:27,    212,    0.1,   10.2,   0.00,   0.00, 1008.6,   69.9, -999.0
11-05-2022, 00:33:37,    212,    0.0,   10.2,   0.00,   0.00, 1008.6,   69.7, -999.0
11-05-2022, 00:33:47,    212,    0.0,   10.1,   0.00,   0.00, 1008.6,   69.8, -999.0
11-05-2022, 00:33:57,    212,    0.0,   10.1,   0.00,   0.00, 1008.6,   69.8, -999.0
11-05-2022, 00:34:07,    212,    0.0,   10.2,   0.00,   0.00, 1008.6,   69.8, -999.0
11-05-2022, 00:34:17,    199,    0.0,   10.2,   0.00,   0.00, 1008.5,   69.7, -999.0
11-05-2022, 00:34:27,    211,    0.0,   10.2,   0.00,   0.00, 1008.6,   69.9, -999.0
11-05-2022, 00:34:37,    235,    1.1,   10.3,   0.00,   0.00, 1008.7,   70.2, -999.0
11-05-2022, 00:34:47,    217,    2.3,   10.3,   0.00,   0.00, 1008.7,   70.1, -999.0
11-05-2022, 00:34:57,    215,    1.6,   10.3,   0.00,   0.00, 1008.6,   70.1, -999.0
11-05-2022, 00:35:07,    238,    3.2,   10.3,   0.00,   0.00, 1008.6,   70.1, -999.0
11-05-2022, 00:35:17,    217,    2.6,   10.3,   0.00,   0.00, 1008.6,   70.2, -999.0
11-05-2022, 00:35:27,    218,    1.8,   10.2,   0.00,   0.00, 1008.6,   70.2, -999.0
11-05-2022, 00:35:36,    205,    1.2,   10.2,   0.00,   0.00, 1008.6,   70.1, -999.0
11-05-2022, 00:35:47,    199,    1.6,   10.2,   0.00,   0.00, 1008.6,   70.1, -999.0
11-05-2022, 00:35:57,    200,    0.4,   10.3,   0.00,   0.00, 1008.6,   70.0, -999.0
11-05-2022, 00:36:06,    201,    0.0,   10.2,   0.00,   0.00, 1008.5,   69.9, -999.0
11-05-2022, 00:36:16,    201,    0.0,   10.2,   0.00,   0.00, 1008.5,   70.0, -999.0
11-05-2022, 00:36:27,    220,    0.4,   10.2,   0.00,   0.00, 1008.6,   70.2, -999.0
11-05-2022, 00:36:36,    217,    0.3,   10.2,   0.00,   0.00, 1008.6,   70.4, -999.0
11-05-2022, 00:36:46,    208,    0.2,   10.2,   0.00,   0.00, 1008.6,   70.0, -999.0
11-05-2022, 00:36:56,    207,    0.0,   10.2,   0.00,   0.00, 1008.4,   69.8, -999.0
11-05-2022, 00:37:06,    209,    0.4,   10.2,   0.00,   0.00, 1008.6,   70.2, -999.0
11-05-2022, 00:37:16,    214,    0.8,   10.2,   0.00,   0.00, 1008.6,   70.3, -999.0
11-05-2022, 00:37:26,    219,    0.3,   10.2,   0.00,   0.00, 1008.6,   70.1, -999.0
11-05-2022, 00:37:36,    221,    0.0,   10.1,   0.00,   0.00, 1008.5,   70.0, -999.0
11-05-2022, 00:37:46,    222,    0.0,   10.1,   0.00,   0.00, 1008.4,   69.8, -999.0
11-05-2022, 00:37:56,    215,    0.0,   10.1,   0.00,   0.00, 1008.4,   69.9, -999.0
11-05-2022, 00:38:06,    232,    0.9,   10.2,   0.00,   0.00, 1008.6,   70.5, -999.0
11-05-2022, 00:38:16,    230,    1.3,   10.2,   0.00,   0.00, 1008.6,   70.4, -999.0
11-05-2022, 00:38:26,    225,    0.2,   10.2,   0.00,   0.00, 1008.6,   70.2, -999.0
11-05-2022, 00:38:36,    225,    0.0,   10.0,   0.00,   0.00, 1008.4,   70.0, -999.0
11-05-2022, 00:38:46,    223,    0.0,   10.1,   0.00,   0.00, 1008.4,   70.1, -999.0
11-05-2022, 00:38:56,    226,    0.8,   10.2,   0.00,   0.00, 1008.6,   70.4, -999.0
11-05-2022, 00:39:06,    225,    0.0,   10.1,   0.00,   0.00, 1008.5,   70.0, -999.0
11-05-2022, 00:39:15,    226,    0.0,   10.2,   0.00,   0.00, 1008.5,   70.1, -999.0
11-05-2022, 00:39:26,    225,    0.0,   10.2,   0.00,   0.00, 1008.5,   70.0, -999.0
11-05-2022, 00:39:36,    225,    0.0,   10.2,   0.00,   0.00, 1008.5,   70.1, -999.0
11-05-2022, 00:39:45,    224,    0.0,   10.1,   0.00,   0.00, 1008.5,   70.1, -999.0
11-05-2022, 00:39:55,    195,    0.8,   10.2,   0.00,   0.00, 1008.6,   70.4, -999.0
11-05-2022, 00:40:05,    195,    0.0,   10.2,   0.00,   0.00, 1008.5,   70.2, -999.0
11-05-2022, 00:40:15,    191,    0.0,   10.2,   0.00,   0.00, 1008.6,   70.1, -999.0
11-05-2022, 00:40:25,    191,    0.0,   10.2,   0.00,   0.00, 1008.5,   70.2, -999.0
11-05-2022, 00:40:35,    192,    0.0,   10.2,   0.00,   0.00, 1008.5,   70.2, -999.0
11-05-2022, 00:40:45,    192,    0.0,   10.1,   0.00,   0.00, 1008.5,   70.0, -999.0
11-05-2022, 00:40:55,    212,    0.4,   10.1,   0.00,   0.00, 1008.6,   70.2, -999.0
11-05-2022, 00:41:05,    212,    0.6,   10.3,   0.00,   0.00, 1008.6,   70.3, -999.0
11-05-2022, 00:41:15,    239,    1.0,   10.2,   0.00,   0.00, 1008.6,   70.4, -999.0
11-05-2022, 00:41:25,    231,    0.3,   10.3,   0.00,   0.00, 1008.6,   70.3, -999.0
11-05-2022, 00:41:35,    211,    0.5,   10.2,   0.00,   0.00, 1008.6,   70.4, -999.0
11-05-2022, 00:41:45,    186,    0.9,   10.3,   0.00,   0.00, 1008.6,   70.5, -999.0
11-05-2022, 00:41:55,    186,    0.4,   10.2,   0.00,   0.00, 1008.6,   70.3, -999.0
11-05-2022, 00:42:05,    184,    0.0,   10.3,   0.00,   0.00, 1008.6,   70.2, -999.0
11-05-2022, 00:42:15,    186,    0.0,   10.2,   0.00,   0.00, 1008.5,   70.1, -999.0
11-05-2022, 00:42:24,    186,    0.0,   10.1,   0.00,   0.00, 1008.5,   70.0, -999.0
11-05-2022, 00:42:35,    186,    0.0,   10.2,   0.00,   0.00, 1008.6,   70.1, -999.0
11-05-2022, 00:42:45,    194,    0.0,   10.2,   0.00,   0.00, 1008.6,   70.2, -999.0
11-05-2022, 00:42:54,    195,    0.0,   10.2,   0.00,   0.00, 1008.5,   70.1, -999.0
11-05-2022, 00:43:04,    195,    0.0,   10.2,   0.00,   0.00, 1008.6,   70.2, -999.0
11-05-2022, 00:43:14,    195,    0.0,   10.2,   0.00,   0.00, 1008.5,   70.2, -999.0
11-05-2022, 00:43:24,    195,    0.0,   10.2,   0.00,   0.00, 1008.6,   70.1, -999.0
11-05-2022, 00:43:34,    195,    0.0,   10.2,   0.00,   0.00, 1008.6,   70.1, -999.0
11-05-2022, 00:43:44,    195,    0.0,   10.2,   0.00,   0.00, 1008.5,   70.2, -999.0
11-05-2022, 00:43:54,    195,    0.0,   10.2,   0.00,   0.00, 1008.6,   70.2, -999.0
11-05-2022, 00:44:04,    195,    0.0,   10.1,   0.00,   0.00, 1008.6,   70.2, -999.0
11-05-2022, 00:44:14,    195,    0.0,   10.2,   0.00,   0.00, 1008.6,   70.3, -999.0
11-05-2022, 00:44:24,    195,    0.0,   10.2,   0.00,   0.00, 1008.6,   70.2, -999.0
11-05-2022, 00:44:34,    195,    0.0,   10.2,   0.00,   0.00, 1008.6,   70.2, -999.0
11-05-2022, 00:44:44,    195,    0.0,   10.1,   0.00,   0.00, 1008.6,   70.2, -999.0
11-05-2022, 00:44:54,    195,    0.0,   10.1,   0.00,   0.00, 1008.6,   70.1, -999.0
11-05-2022, 00:45:04,    197,    0.0,   10.0,   0.00,   0.00, 1008.6,   70.2, -999.0
11-05-2022, 00:45:14,    199,    0.2,   10.2,   0.00,   0.00, 1008.7,   70.2, -999.0
11-05-2022, 00:45:24,    201,    0.0,   10.2,   0.00,   0.00, 1008.6,   70.1, -999.0
11-05-2022, 00:45:33,    219,    0.0,   10.2,   0.00,   0.00, 1008.6,   70.3, -999.0
11-05-2022, 00:45:44,    256,    0.5,   10.2,   0.00,   0.00, 1008.6,   70.4, -999.0
11-05-2022, 00:45:54,    251,    1.2,   10.3,   0.00,   0.00, 1008.7,   70.6, -999.0
11-05-2022, 00:46:03,    244,    0.1,   10.2,   0.00,   0.00, 1008.6,   70.3, -999.0
11-05-2022, 00:46:14,    245,    0.1,   10.1,   0.00,   0.00, 1008.6,   70.4, -999.0
11-05-2022, 00:46:23,    223,    0.0,   10.1,   0.00,   0.00, 1008.6,   70.2, -999.0
11-05-2022, 00:46:33,    223,    0.0,   10.2,   0.00,   0.00, 1008.6,   70.3, -999.0
11-05-2022, 00:46:43,    223,    0.0,   10.2,   0.00,   0.00, 1008.6,   70.3, -999.0